This demonstration page uses our WeatherBlox Daily Observations layout. Learn more.

Left ArrowRight Arrow

Hourly Observations for September 29, 2020

Temp ( °F °C ) Dew Point ( °F °C ) Humidity (%) Winds ( mph kmh ) Pressure ( in mb ) Visibility ( mi km ) Precip ( " mm )
12:54 am 00:54 Clear 42 5.6 35 1.7 76 76 Calm 30.11 1020 10 16.0934 0 0
1:54 am 01:54 Clear 40 4.4 35 1.7 83 83 Calm 30.11 1020 10 16.0934 0 0
2:54 am 02:54 Clear 41 5 35 1.7 79 79 Calm 30.09 1019 10 16.0934 0 0
3:54 am 03:54 Clear 45 7.2 37 2.8 74 74 WNW 6 9 30.08 1019 10 16.0934 0 0
4:54 am 04:54 Clear 45 7.2 37 2.8 74 74 WNW 5 7 30.08 1019 10 16.0934 0 0
5:54 am 05:54 Clear 44 6.7 37 2.8 76 76 NW 5 7 30.09 1019 10 16.0934 0 0
6:54 am 06:54 Clear 42 5.6 36 2.2 79 79 SW 5 7 30.08 1019 10 16.0934 0 0
7:54 am 07:54 Sunny 42 5.6 36 2.2 79 79 WSW 3 6 30.08 1019 10 16.0934 0 0
8:54 am 08:54 Sunny 46 7.8 39 3.9 77 77 SSW 3 6 30.07 1018 10 16.0934 0 0
9:54 am 09:54 Sunny 55 12.8 41 5 59 59 SW 8 13 30.04 1017 10 16.0934 0 0
10:54 am 10:54 Sunny 64 17.8 39 3.9 40 40 W 9 15 30.02 1017 10 16.0934 0 0
11:54 am 11:54 Sunny 70 21.1 34 1.1 27 27 W 9 15 30 1016 10 16.0934 0 0
12:54 pm 12:54 Sunny 73 22.8 31 -0.6 21 21 W 17 28 29.96 1014 10 16.0934 0 0
1:54 pm 13:54 Sunny 77 25 30 -1.1 18 18 W 16 26 29.93 1014 10 16.0934 0 0
2:54 pm 14:54 Sunny 79 26.1 29 -1.7 16 16 W 15 24 29.88 1012 10 16.0934 0 0
3:54 pm 15:54 Sunny 80 26.7 29 -1.7 15 15 W 16 26 29.85 1011 10 16.0934 0 0
4:54 pm 16:54 Sunny 82 27.8 31 -0.6 16 16 WNW 16 26 29.82 1010 10 16.0934 0 0
5:54 pm 17:54 Sunny 82 27.8 34 1.1 18 18 W 13 20 29.8 1009 10 16.0934 0 0
6:54 pm 18:54 Sunny 78 25.6 37 2.8 23 23 W 8 13 29.8 1009 10 16.0934 0 0
7:54 pm 19:54 Clear 73 22.8 39 3.9 29 29 WNW 3 6 29.82 1010 10 16.0934 0 0
8:54 pm 20:54 Clear 63 17.2 40 4.4 43 43 Calm 29.83 1010 10 16.0934 0 0
9:54 pm 21:54 Clear 58 14.4 42 5.6 56 56 NNE 3 6 29.84 1010 10 16.0934 0 0
10:54 pm 22:54 Clear 58 14.4 42 5.6 56 56 Calm 29.83 1010 10 16.0934 0 0
11:54 pm 23:54 Clear 53 11.7 44 6.7 72 72 Calm 29.83 1010 10 16.0934 0 0

Powered by AerisWeather